• En España
  • Lista de países
  • Para 7 días
  • Temperatura del agua
  • Mapa Satelital
  • El tiempo en el mapa
  • Informadores
  • user-avatar
    Iniciar sesión

    Tiempo cada hora Brikama

    Hoy, 15 Noviembre, Jueves

    Tiempo Temperatura Precipitaciones Viento Presión Humedad
    00:00 +28°C° 0 mm 4 mps 756 mmHg 55%
    01:00 +28°C° 0 mm 4 mps 756 mmHg 54%
    02:00 +27°C° 0 mm 4 mps 756 mmHg 52%
    03:00 +27°C° 0 mm 4 mps 756 mmHg 50%
    04:00 +27°C° 0 mm 4 mps 756 mmHg 49%
    05:00 +27°C° 0 mm 3 mps 756 mmHg 47%
    06:00 +27°C° 0 mm 4 mps 756 mmHg 45%
    07:00 +27°C° 0 mm 4 mps 756 mmHg 43%
    08:00 +28°C° 0 mm 4 mps 757 mmHg 40%
    09:00 +29°C° 0 mm 4 mps 757 mmHg 37%
    10:00 +30°C° 0 mm 4 mps 756 mmHg 33%
    11:00 +32°C° 0 mm 4 mps 756 mmHg 30%
    12:00 +33°C° 0 mm 4 mps 756 mmHg 27%
    13:00 +35°C° 0 mm 4 mps 755 mmHg 25%
    14:00 +36°C° 0 mm 3 mps 755 mmHg 23%
    15:00 +35°C° 0 mm 4 mps 755 mmHg 27%
    16:00 +34°C° 0 mm 4 mps 755 mmHg 31%
    17:00 +33°C° 0 mm 5 mps 755 mmHg 35%
    18:00 +32°C° 0 mm 5 mps 755 mmHg 40%
    19:00 +30°C° 0 mm 4 mps 756 mmHg 46%
    20:00 +29°C° 0 mm 4 mps 756 mmHg 51%
    21:00 +29°C° 0 mm 5 mps 756 mmHg 52%
    22:00 +28°C° 0 mm 6 mps 756 mmHg 54%
    23:00 +28°C° 0 mm 6 mps 757 mmHg 56%

    Mañana, 16 Noviembre, Viernes

    Tiempo Temperatura Precipitaciones Viento Presión Humedad
    00:00 +28°C° 0 mm 6 mps 756 mmHg 54%
    01:00 +28°C° 0 mm 5 mps 756 mmHg 51%
    02:00 +27°C° 0 mm 4 mps 756 mmHg 49%
    03:00 +27°C° 0 mm 4 mps 756 mmHg 47%
    04:00 +27°C° 0 mm 4 mps 756 mmHg 45%
    05:00 +27°C° 0 mm 5 mps 756 mmHg 43%
    06:00 +28°C° 0 mm 5 mps 756 mmHg 41%
    07:00 +28°C° 0 mm 5 mps 756 mmHg 38%
    08:00 +28°C° 0 mm 6 mps 757 mmHg 36%
    09:00 +30°C° 0 mm 5 mps 757 mmHg 32%
    10:00 +33°C° 0 mm 5 mps 757 mmHg 27%
    11:00 +35°C° 0 mm 5 mps 757 mmHg 23%
    12:00 +36°C° 0 mm 5 mps 756 mmHg 22%
    13:00 +37°C° 0 mm 5 mps 755 mmHg 21%
    14:00 +40°C° 0 mm 4 mps 755 mmHg 20%
    15:00 +37°C° 0 mm 5 mps 755 mmHg 27%
    16:00 +35°C° 0 mm 6 mps 755 mmHg 34%
    17:00 +34°C° 0 mm 6 mps 755 mmHg 41%
    18:00 +33°C° 0 mm 6 mps 755 mmHg 44%
    19:00 +32°C° 0 mm 6 mps 756 mmHg 47%
    20:00 +30°C° 0 mm 6 mps 756 mmHg 50%
    21:00 +30°C° 0 mm 5 mps 756 mmHg 50%
    22:00 +29°C° 0 mm 5 mps 756 mmHg 49%
    23:00 +29°C° 0 mm 5 mps 756 mmHg 48%

    Pasado mañana, 17 Noviembre, Sábado

    Tiempo Temperatura Precipitaciones Viento Presión Humedad
    00:00 +29°C° 0 mm 5 mps 756 mmHg 47%
    01:00 +29°C° 0 mm 5 mps 756 mmHg 46%
    02:00 +28°C° 0 mm 6 mps 756 mmHg 45%
    03:00 +28°C° 0 mm 6 mps 756 mmHg 45%
    04:00 +28°C° 0 mm 6 mps 756 mmHg 45%
    05:00 +28°C° 0 mm 6 mps 756 mmHg 45%
    06:00 +28°C° 0 mm 6 mps 756 mmHg 44%
    07:00 +28°C° 0 mm 6 mps 756 mmHg 43%
    08:00 +29°C° 0 mm 5 mps 757 mmHg 42%
    09:00 +32°C° 0 mm 5 mps 757 mmHg 36%
    10:00 +34°C° 0 mm 4 mps 757 mmHg 30%
    11:00 +36°C° 0 mm 4 mps 757 mmHg 24%
    12:00 +37°C° 0 mm 4 mps 756 mmHg 23%
    13:00 +38°C° 0 mm 4 mps 755 mmHg 23%
    14:00 +38°C° 0 mm 3 mps 755 mmHg 22%
    15:00 +37°C° 0 mm 4 mps 755 mmHg 27%
    16:00 +35°C° 0 mm 5 mps 755 mmHg 32%
    17:00 +34°C° 0 mm 5 mps 755 mmHg 37%
    18:00 +33°C° 0 mm 6 mps 755 mmHg 41%
    19:00 +32°C° 0 mm 6 mps 756 mmHg 44%
    20:00 +30°C° 0 mm 6 mps 756 mmHg 48%
    21:00 +30°C° 0 mm 6 mps 756 mmHg 47%
    22:00 +29°C° 0 mm 6 mps 756 mmHg 47%
    23:00 +29°C° 0 mm 6 mps 756 mmHg 46%

    18 Noviembre, Domingo

    Tiempo Temperatura Precipitaciones Viento Presión Humedad
    00:00 +29°C° 0 mm 6 mps 756 mmHg 45%
    01:00 +28°C° 0 mm 5 mps 756 mmHg 44%
    02:00 +28°C° 0 mm 5 mps 755 mmHg 43%
    03:00 +28°C° 0 mm 5 mps 755 mmHg 42%
    04:00 +28°C° 0 mm 5 mps 755 mmHg 42%
    05:00 +28°C° 0 mm 5 mps 755 mmHg 41%
    06:00 +28°C° 0 mm 5 mps 756 mmHg 40%
    07:00 +29°C° 0 mm 6 mps 756 mmHg 40%
    08:00 +29°C° 0 mm 6 mps 757 mmHg 39%
    09:00 +30°C° 0 mm 5 mps 757 mmHg 38%
    10:00 +32°C° 0 mm 5 mps 757 mmHg 37%
    11:00 +33°C° 0 mm 5 mps 757 mmHg 36%
    12:00 +34°C° 0 mm 4 mps 756 mmHg 35%
    13:00 +35°C° 0 mm 4 mps 755 mmHg 34%
    14:00 +36°C° 0 mm 3 mps 754 mmHg 33%
    15:00 +35°C° 0 mm 4 mps 754 mmHg 38%
    16:00 +33°C° 0 mm 4 mps 754 mmHg 43%
    17:00 +32°C° 0 mm 5 mps 754 mmHg 48%
    18:00 +30°C° 0 mm 5 mps 755 mmHg 51%
    19:00 +30°C° 0 mm 5 mps 756 mmHg 55%
    20:00 +29°C° 0 mm 5 mps 756 mmHg 58%
    21:00 +28°C° 0 mm 5 mps 756 mmHg 57%
    22:00 +28°C° 0 mm 4 mps 756 mmHg 55%
    23:00 +27°C° 0 mm 4 mps 756 mmHg 54%

    19 Noviembre, Lunes

    Tiempo Temperatura Precipitaciones Viento Presión Humedad
    00:00 +27°C° 0 mm 4 mps 756 mmHg 53%
    01:00 +27°C° 0 mm 4 mps 755 mmHg 53%
    02:00 +26°C° 0 mm 5 mps 755 mmHg 53%
    03:00 +26°C° 0 mm 5 mps 755 mmHg 55%
    04:00 +25°C° 0 mm 4 mps 755 mmHg 57%
    05:00 +23°C° 0 mm 4 mps 755 mmHg 60%
    06:00 +25°C° 0 mm 5 mps 756 mmHg 57%
    07:00 +26°C° 0 mm 5 mps 756 mmHg 54%
    08:00 +26°C° 0 mm 5 mps 757 mmHg 52%
    09:00 +29°C° 0 mm 5 mps 757 mmHg 44%
    10:00 +32°C° 0 mm 5 mps 757 mmHg 37%
    11:00 +34°C° 0 mm 4 mps 757 mmHg 30%
    12:00 +35°C° 0 mm 4 mps 756 mmHg 29%
    13:00 +36°C° 0 mm 4 mps 755 mmHg 28%
    14:00 +37°C° 0 mm 4 mps 754 mmHg 27%
    15:00 +35°C° 0 mm 5 mps 754 mmHg 33%
    16:00 +34°C° 0 mm 5 mps 754 mmHg 39%
    17:00 +32°C° 0 mm 6 mps 754 mmHg 46%
    18:00 +30°C° 0 mm 6 mps 755 mmHg 50%
    19:00 +29°C° 0 mm 6 mps 756 mmHg 55%
    20:00 +28°C° 0 mm 5 mps 756 mmHg 60%
    21:00 +28°C° 0 mm 5 mps 756 mmHg 59%
    22:00 +27°C° 0 mm 5 mps 756 mmHg 59%
    23:00 +27°C° 0 mm 5 mps 756 mmHg 58%

    20 Noviembre, Martes

    Tiempo Temperatura Precipitaciones Viento Presión Humedad
    00:00 +26°C° 0 mm 5 mps 756 mmHg 59%
    01:00 +26°C° 0 mm 5 mps 756 mmHg 60%
    02:00 +25°C° 0 mm 5 mps 755 mmHg 61%
    03:00 +25°C° 0 mm 5 mps 755 mmHg 62%
    04:00 +23°C° 0 mm 5 mps 756 mmHg 63%
    05:00 +23°C° 0 mm 5 mps 756 mmHg 65%
    06:00 +25°C° 0 mm 5 mps 756 mmHg 62%
    07:00 +25°C° 0 mm 5 mps 757 mmHg 59%
    08:00 +26°C° 0 mm 5 mps 757 mmHg 56%
    09:00 +28°C° 0 mm 5 mps 757 mmHg 48%
    10:00 +32°C° 0 mm 5 mps 757 mmHg 39%
    11:00 +34°C° 0 mm 4 mps 757 mmHg 30%
    12:00 +35°C° 0 mm 4 mps 756 mmHg 29%
    13:00 +36°C° 0 mm 4 mps 755 mmHg 27%
    14:00 +37°C° 0 mm 4 mps 755 mmHg 25%
    15:00 +36°C° 0 mm 4 mps 755 mmHg 31%
    16:00 +34°C° 0 mm 5 mps 755 mmHg 37%
    17:00 +33°C° 0 mm 5 mps 755 mmHg 42%
    18:00 +32°C° 0 mm 5 mps 755 mmHg 48%
    19:00 +30°C° 0 mm 6 mps 756 mmHg 54%
    20:00 +28°C° 0 mm 6 mps 756 mmHg 60%
    21:00 +28°C° 0 mm 6 mps 756 mmHg 59%
    22:00 +27°C° 0 mm 6 mps 756 mmHg 59%
    23:00 +27°C° 0 mm 6 mps 756 mmHg 58%
    Mostrar más